Weather History for Wildwood, NJ

Change the Weather History Date:

Sunday, March 4, 2012

  Actual Average Record
Temperature  
Mean Temperature 44 °F -  
Max Temperature 48 °F 45 °F 62 °F (2008)
Min Temperature 41 °F 32 °F 8 °F (2009)
Degree Days  
Heating Degree Days 20    
Moisture  
Dew Point 26 °F    
Average Humidity 49    
Maximum Humidity 62    
Minimum Humidity 39    
Precipitation  
Precipitation 0.00 in - - ()
Sea Level Pressure  
Sea Level Pressure 29.72 in    
Wind  
Wind Speed 7 mph (North)    
Max Wind Speed 15 mph    
Max Gust Speed 21 mph    
Visibility 10 miles    
Events      
Averages and records for this station are not official NWS values.
T = Trace of Precipitation, MM = Missing Value Source: NWS Daily Summary

Daily Weather History Graph

Daily Weather History Graph

Search for Another Location

Airport:

Trip Planner

Search our weather history database for the weather conditions in past years. The results will help you decide how hot, cold, wet, or windy it might be!

Date:

Astronomy

Mar. 04, 2012 Rise Set
Actual Time 6:27 AM EST 5:55 PM EST
Civil Twilight 6:00 AM EST 6:22 PM EST
Nautical Twilight 5:29 AM EST 6:53 PM EST
Astronomical Twilight 4:58 AM EST 7:24 PM EST
Moon 2:07 PM EST (3/4) 3:43 AM EST (3/4)
Length of Visible Light 12h 22m
Length of Day
11h 28m
Waxing Gibbous, 83% of the Moon is Illuminated
Mar 4
Waxing Gibbous
Mar 8
Full
Mar 14
Last Quarter
Mar 22
New
Mar 30
First Quarter

Hourly Weather History & Observations

Time (EST) Temp. Windchill Dew Point Humidity Pressure Visibility Wind Dir Wind Speed Gust Speed Precip Events Conditions
12:15 AM 48.2 °F - 35.6 °F 62% 29.73 in 10.0 mi ENE 4.6 mph - N/A   Partly Cloudy
12:35 AM 46.4 °F 43.5 °F 33.8 °F 62% 29.73 in 10.0 mi ENE 5.8 mph - N/A   Mostly Cloudy
12:55 AM 48.2 °F - 32.0 °F 54% 29.73 in 10.0 mi ENE 6.9 mph - N/A   Mostly Cloudy
1:15 AM 48.2 °F - 28.4 °F 46% 29.72 in 10.0 mi ENE 5.8 mph - N/A   Scattered Clouds
1:35 AM 48.2 °F - 28.4 °F 46% 29.73 in 10.0 mi SSW 5.8 mph - N/A   Mostly Cloudy
1:55 AM 48.2 °F - 30.2 °F 50% 29.72 in 10.0 mi West 6.9 mph - N/A   Mostly Cloudy
2:15 AM 46.4 °F 42.9 °F 28.4 °F 50% 29.72 in 10.0 mi NW 6.9 mph - N/A   Mostly Cloudy
2:35 AM 46.4 °F 44.3 °F 30.2 °F 53% 29.73 in 10.0 mi NW 4.6 mph - N/A   Mostly Cloudy
2:55 AM 46.4 °F 43.5 °F 28.4 °F 50% 29.73 in 10.0 mi NW 5.8 mph - N/A   Overcast
3:15 AM 46.4 °F 43.5 °F 28.4 °F 50% 29.71 in 10.0 mi NNW 5.8 mph - N/A   Mostly Cloudy
3:35 AM 46.4 °F 43.5 °F 26.6 °F 46% 29.70 in 10.0 mi NNW 5.8 mph - N/A   Partly Cloudy
3:55 AM 44.6 °F 42.2 °F 28.4 °F 53% 29.72 in 10.0 mi NW 4.6 mph - N/A   Scattered Clouds
4:15 AM 44.6 °F 40.2 °F 28.4 °F 53% 29.74 in 10.0 mi WNW 8.1 mph - N/A   Partly Cloudy
4:35 AM 44.6 °F 40.7 °F 28.4 °F 53% 29.73 in 10.0 mi NNW 6.9 mph - N/A   Partly Cloudy
4:55 AM 44.6 °F 39.7 °F 28.4 °F 53% 29.73 in 10.0 mi NW 9.2 mph 16.1 mph N/A   Scattered Clouds
5:15 AM 44.6 °F 41.4 °F 26.6 °F 49% 29.74 in 10.0 mi NW 5.8 mph - N/A   Mostly Cloudy
5:35 AM 44.6 °F 42.2 °F 28.4 °F 53% 29.74 in 10.0 mi NW 4.6 mph - N/A   Mostly Cloudy
5:55 AM 44.6 °F 41.4 °F 26.6 °F 49% 29.74 in 10.0 mi NNW 5.8 mph - N/A   Overcast
6:15 AM 44.6 °F 40.7 °F 26.6 °F 49% 29.74 in 10.0 mi North 6.9 mph - N/A   Mostly Cloudy
6:35 AM 44.6 °F 39.7 °F 26.6 °F 49% 29.74 in 10.0 mi North 9.2 mph - N/A   Mostly Cloudy
6:55 AM 42.8 °F 37.5 °F 26.6 °F 53% 29.73 in 10.0 mi North 9.2 mph - N/A   Overcast
7:15 AM 42.8 °F 38.6 °F 26.6 °F 53% 29.73 in 10.0 mi NNE 6.9 mph - N/A   Scattered Clouds
7:35 AM 42.8 °F 39.3 °F 28.4 °F 57% 29.73 in 10.0 mi NNE 5.8 mph - N/A   Mostly Cloudy
7:55 AM 42.8 °F 41.1 °F 26.6 °F 53% 29.73 in 10.0 mi North 3.5 mph - N/A   Mostly Cloudy
8:15 AM 42.8 °F 39.3 °F 26.6 °F 53% 29.74 in 10.0 mi North 5.8 mph - N/A   Overcast
8:35 AM 42.8 °F 38.0 °F 26.6 °F 53% 29.72 in 10.0 mi North 8.1 mph - N/A   Overcast
8:55 AM 42.8 °F 38.6 °F 24.8 °F 49% 29.73 in 10.0 mi North 6.9 mph - N/A   Mostly Cloudy
9:15 AM 42.8 °F 40.1 °F 26.6 °F 53% 29.73 in 10.0 mi North 4.6 mph - N/A   Mostly Cloudy
9:35 AM 42.8 °F 39.3 °F 26.6 °F 53% 29.73 in 10.0 mi North 5.8 mph - N/A   Scattered Clouds
9:55 AM 41.0 °F 35.8 °F 26.6 °F 57% 29.72 in 10.0 mi North 8.1 mph - N/A   Scattered Clouds
10:15 AM 41.0 °F 36.4 °F 24.8 °F 53% 29.74 in 10.0 mi North 6.9 mph - N/A   Scattered Clouds
10:35 AM 42.8 °F 39.3 °F 24.8 °F 49% 29.72 in 10.0 mi North 5.8 mph - N/A   Partly Cloudy
10:55 AM 42.8 °F 40.1 °F 23.0 °F 46% 29.73 in 10.0 mi NNE 4.6 mph - N/A   Clear
11:15 AM 42.8 °F 39.3 °F 23.0 °F 46% 29.71 in 10.0 mi NNE 5.8 mph - N/A   Clear
11:35 AM 41.0 °F 37.1 °F 23.0 °F 49% 29.71 in 10.0 mi NNE 5.8 mph - N/A   Clear
11:55 AM 42.8 °F 41.1 °F 23.0 °F 46% 29.71 in 10.0 mi NNE 3.5 mph - N/A   Clear
12:15 PM 42.8 °F 41.1 °F 24.8 °F 49% 29.69 in 10.0 mi NNE 3.5 mph - N/A   Clear
12:35 PM 42.8 °F 36.6 °F 24.8 °F 49% 29.70 in 10.0 mi NNE 11.5 mph - N/A   Clear
12:55 PM 42.8 °F 37.0 °F 24.8 °F 49% 29.67 in 10.0 mi NNE 10.4 mph - N/A   Clear
1:15 PM 42.8 °F 38.0 °F 24.8 °F 49% 29.68 in 10.0 mi NNE 8.1 mph 16.1 mph N/A   Clear
1:35 PM 42.8 °F 38.6 °F 23.0 °F 46% 29.66 in 10.0 mi NE 6.9 mph - N/A   Clear
1:55 PM 44.6 °F 39.2 °F 24.8 °F 46% 29.66 in 10.0 mi NE 10.4 mph 17.3 mph N/A   Clear
2:15 PM 44.6 °F 38.8 °F 24.8 °F 46% 29.67 in 10.0 mi NE 11.5 mph - N/A   Clear
2:35 PM 44.6 °F 39.2 °F 24.8 °F 46% 29.67 in 10.0 mi NE 10.4 mph 17.3 mph N/A   Clear
2:55 PM 44.6 °F 38.8 °F 24.8 °F 46% 29.68 in 10.0 mi NE 11.5 mph 17.3 mph N/A   Clear
3:15 PM 44.6 °F 38.4 °F 24.8 °F 46% 29.67 in 10.0 mi NE 12.7 mph 19.6 mph N/A   Clear
3:35 PM 44.6 °F 38.8 °F 24.8 °F 46% 29.68 in 10.0 mi NE 11.5 mph 20.7 mph N/A   Clear
3:55 PM 44.6 °F 39.2 °F 24.8 °F 46% 29.68 in 10.0 mi NE 10.4 mph 17.3 mph N/A   Clear
4:15 PM 44.6 °F 37.8 °F 23.0 °F 43% 29.68 in 10.0 mi NE 15.0 mph 20.7 mph N/A   Clear
4:35 PM 44.6 °F 38.1 °F 21.2 °F 39% 29.68 in 10.0 mi NE 13.8 mph 19.6 mph N/A   Clear
4:55 PM 44.6 °F 38.8 °F 21.2 °F 39% 29.70 in 10.0 mi NNE 11.5 mph 20.7 mph N/A   Clear
5:15 PM 42.8 °F 37.0 °F 21.2 °F 42% 29.71 in 10.0 mi NNE 10.4 mph 17.3 mph N/A   Clear
5:35 PM 42.8 °F 36.2 °F 21.2 °F 42% 29.72 in 10.0 mi NNE 12.7 mph 17.3 mph N/A   Partly Cloudy
5:55 PM 42.8 °F 36.6 °F 19.4 °F 39% 29.72 in 10.0 mi NE 11.5 mph 19.6 mph N/A   Partly Cloudy
6:15 PM 42.8 °F 36.2 °F 21.2 °F 42% 29.73 in 10.0 mi NE 12.7 mph 20.7 mph N/A   Clear
6:35 PM 42.8 °F 36.6 °F 19.4 °F 39% 29.74 in 10.0 mi NE 11.5 mph - N/A   Clear
6:55 PM 41.0 °F 33.5 °F 21.2 °F 45% 29.76 in 10.0 mi NE 13.8 mph 18.4 mph N/A   Clear
7:15 PM 41.0 °F 35.8 °F 21.2 °F 45% 29.77 in 10.0 mi NNE 8.1 mph 17.3 mph N/A   Clear
7:35 PM 41.0 °F 35.2 °F 19.4 °F 42% 29.77 in 10.0 mi NNE 9.2 mph 17.3 mph N/A   Clear
7:55 PM 41.0 °F 35.2 °F 21.2 °F 45% 29.79 in 10.0 mi NNE 9.2 mph 16.1 mph N/A   Clear
8:15 PM 41.0 °F 34.3 °F 21.2 °F 45% 29.80 in 10.0 mi North 11.5 mph 17.3 mph N/A   Clear
8:35 PM 41.0 °F 33.5 °F 21.2 °F 45% 29.80 in 10.0 mi North 13.8 mph 18.4 mph N/A   Clear
8:55 PM 39.2 °F 31.6 °F 21.2 °F 49% 29.81 in 10.0 mi NNE 12.7 mph 16.1 mph N/A   Clear
9:15 PM 39.2 °F 30.8 °F 21.2 °F 49% 29.81 in 10.0 mi NNE 15.0 mph 21.9 mph N/A   Clear
9:35 PM 39.2 °F 31.2 °F 21.2 °F 49% 29.82 in 10.0 mi NNE 13.8 mph 20.7 mph N/A   Clear
9:55 PM 39.2 °F 31.6 °F 21.2 °F 49% 29.83 in 10.0 mi NNE 12.7 mph 23.0 mph N/A   Clear
10:15 PM 39.2 °F 31.6 °F 21.2 °F 49% 29.84 in 10.0 mi NNE 12.7 mph 20.7 mph N/A   Clear
10:55 PM 39.2 °F 32.5 °F 23.0 °F 52% 29.84 in 10.0 mi North 10.4 mph 18.4 mph N/A   Clear
11:15 PM 39.2 °F 31.6 °F 23.0 °F 52% 29.84 in 10.0 mi NNE 12.7 mph 19.6 mph N/A   Clear
11:35 PM 39.2 °F 32.0 °F 23.0 °F 52% 29.85 in 10.0 mi NNE 11.5 mph 20.7 mph N/A   Clear
11:55 PM 39.2 °F 30.8 °F 21.2 °F 49% 29.85 in 10.0 mi NNE 15.0 mph 20.7 mph N/A   Clear